<?xml version="1.0" encoding="UTF-8" standalone="no" ?>
<gpx xmlns="http://www.topografix.com/GPX/1/1" xmlns:xsi="http://www.w3.org/2001/XMLSchema-instance" xsi:schemaLocation="http://www.topografix.com/GPX/1/1 http://www.topografix.com/GPX/1/1/gpx.xsd" version="1.1" creator="VisuGPX - https://www.visugpx.com">
  <metadata>
    <name>GITER Poitou Charentes : boucle 86</name>
    <desc><![CDATA[Partie en Vienne de la Boucle centrale
[url]http://cdte86.free.fr/spip.php?article137[/url]]]></desc>
  </metadata>
  <trk>
    <name><![CDATA[Trk010]]></name>
    <trkseg>
      <trkpt lat="46.27793" lon="0.35713">
        <ele>114</ele>
        <time>2007-05-01T13:35:12Z</time>
      </trkpt>
      <trkpt lat="46.27793" lon="0.35713">
        <ele>114</ele>
        <time>2007-05-01T13:35:12Z</time>
      </trkpt>
      <trkpt lat="46.27798" lon="0.35712">
        <ele>114</ele>
        <time>2007-05-01T13:35:12Z</time>
      </trkpt>
      <trkpt lat="46.27794" lon="0.35719">
        <ele>114</ele>
        <time>2007-05-01T13:35:12Z</time>
      </trkpt>
      <trkpt lat="46.27789" lon="0.35719">
        <ele>114</ele>
        <time>2007-05-01T13:35:12Z</time>
      </trkpt>
      <trkpt lat="46.27789" lon="0.35719">
        <ele>114</ele>
        <time>2007-05-01T13:35:12Z</time>
      </trkpt>
      <trkpt lat="46.27803" lon="0.35725">
        <ele>113</ele>
        <time>2007-05-01T13:35:12Z</time>
      </trkpt>
      <trkpt lat="46.27798" lon="0.35719">
        <ele>114</ele>
        <time>2007-05-01T13:35:12Z</time>
      </trkpt>
      <trkpt lat="46.27803" lon="0.35719">
        <ele>114</ele>
        <time>2007-05-01T13:35:12Z</time>
      </trkpt>
      <trkpt lat="46.27789" lon="0.35726">
        <ele>114</ele>
        <time>2007-05-01T13:35:12Z</time>
      </trkpt>
      <trkpt lat="46.27794" lon="0.35725">
        <ele>114</ele>
        <time>2007-05-01T13:35:12Z</time>
      </trkpt>
      <trkpt lat="46.27798" lon="0.35725">
        <ele>113</ele>
        <time>2007-05-01T13:35:12Z</time>
      </trkpt>
      <trkpt lat="46.27794" lon="0.35719">
        <ele>114</ele>
        <time>2007-05-01T13:35:12Z</time>
      </trkpt>
      <trkpt lat="46.27798" lon="0.35712">
        <ele>114</ele>
        <time>2007-05-01T13:35:12Z</time>
      </trkpt>
      <trkpt lat="46.27798" lon="0.35719">
        <ele>114</ele>
        <time>2007-05-01T13:35:12Z</time>
      </trkpt>
      <trkpt lat="46.27803" lon="0.35719">
        <ele>114</ele>
        <time>2007-05-01T13:35:12Z</time>
      </trkpt>
      <trkpt lat="46.27798" lon="0.35719">
        <ele>114</ele>
        <time>2007-05-01T13:35:12Z</time>
      </trkpt>
      <trkpt lat="46.27681" lon="0.35743">
        <ele>113</ele>
        <time>2007-05-01T13:35:12Z</time>
      </trkpt>
      <trkpt lat="46.27635" lon="0.359">
        <ele>113</ele>
        <time>2007-05-01T13:35:12Z</time>
      </trkpt>
      <trkpt lat="46.27591" lon="0.35979">
        <ele>113</ele>
        <time>2007-05-01T13:35:12Z</time>
      </trkpt>
      <trkpt lat="46.2766" lon="0.3634">
        <ele>113</ele>
        <time>2007-05-01T13:35:12Z</time>
      </trkpt>
      <trkpt lat="46.27595" lon="0.367">
        <ele>118</ele>
        <time>2007-05-01T13:35:12Z</time>
      </trkpt>
      <trkpt lat="46.27555" lon="0.36766">
        <ele>121</ele>
        <time>2007-05-01T13:35:12Z</time>
      </trkpt>
      <trkpt lat="46.27535" lon="0.36877">
        <ele>122</ele>
        <time>2007-05-01T13:35:12Z</time>
      </trkpt>
      <trkpt lat="46.27083" lon="0.36783">
        <ele>129</ele>
        <time>2007-05-01T13:35:12Z</time>
      </trkpt>
      <trkpt lat="46.27034" lon="0.36545">
        <ele>125</ele>
        <time>2007-05-01T13:35:12Z</time>
      </trkpt>
      <trkpt lat="46.26905" lon="0.36355">
        <ele>119</ele>
        <time>2007-05-01T13:35:12Z</time>
      </trkpt>
      <trkpt lat="46.26929" lon="0.36185">
        <ele>117</ele>
        <time>2007-05-01T13:35:12Z</time>
      </trkpt>
      <trkpt lat="46.2689" lon="0.36005">
        <ele>116</ele>
        <time>2007-05-01T13:35:12Z</time>
      </trkpt>
      <trkpt lat="46.26796" lon="0.35775">
        <ele>115</ele>
        <time>2007-05-01T13:35:12Z</time>
      </trkpt>
      <trkpt lat="46.26676" lon="0.35623">
        <ele>116</ele>
        <time>2007-05-01T13:35:12Z</time>
      </trkpt>
      <trkpt lat="46.26487" lon="0.35624">
        <ele>123</ele>
        <time>2007-05-01T13:35:12Z</time>
      </trkpt>
      <trkpt lat="46.26351" lon="0.35557">
        <ele>125</ele>
        <time>2007-05-01T13:35:12Z</time>
      </trkpt>
      <trkpt lat="46.26245" lon="0.35438">
        <ele>125</ele>
        <time>2007-05-01T13:35:12Z</time>
      </trkpt>
      <trkpt lat="46.26105" lon="0.35423">
        <ele>127</ele>
        <time>2007-05-01T13:35:12Z</time>
      </trkpt>
      <trkpt lat="46.26105" lon="0.35411">
        <ele>127</ele>
        <time>2007-05-01T13:35:12Z</time>
      </trkpt>
      <trkpt lat="46.26105" lon="0.35423">
        <ele>127</ele>
        <time>2007-05-01T13:35:12Z</time>
      </trkpt>
      <trkpt lat="46.26105" lon="0.35417">
        <ele>127</ele>
        <time>2007-05-01T13:35:12Z</time>
      </trkpt>
      <trkpt lat="46.26067" lon="0.35516">
        <ele>128</ele>
        <time>2007-05-01T13:35:12Z</time>
      </trkpt>
      <trkpt lat="46.25944" lon="0.35715">
        <ele>129</ele>
        <time>2007-05-01T13:35:12Z</time>
      </trkpt>
      <trkpt lat="46.25882" lon="0.35788">
        <ele>130</ele>
        <time>2007-05-01T13:35:12Z</time>
      </trkpt>
      <trkpt lat="46.25725" lon="0.35775">
        <ele>129</ele>
        <time>2007-05-01T13:35:12Z</time>
      </trkpt>
      <trkpt lat="46.25672" lon="0.35835">
        <ele>128</ele>
        <time>2007-05-01T13:35:12Z</time>
      </trkpt>
      <trkpt lat="46.25516" lon="0.35919">
        <ele>125</ele>
        <time>2007-05-01T13:35:12Z</time>
      </trkpt>
      <trkpt lat="46.25441" lon="0.36019">
        <ele>128</ele>
        <time>2007-05-01T13:35:12Z</time>
      </trkpt>
      <trkpt lat="46.25324" lon="0.36049">
        <ele>125</ele>
        <time>2007-05-01T13:35:12Z</time>
      </trkpt>
      <trkpt lat="46.25157" lon="0.36509">
        <ele>138</ele>
        <time>2007-05-01T13:35:12Z</time>
      </trkpt>
      <trkpt lat="46.252" lon="0.36637">
        <ele>137</ele>
        <time>2007-05-01T13:35:12Z</time>
      </trkpt>
      <trkpt lat="46.25207" lon="0.36792">
        <ele>135</ele>
        <time>2007-05-01T13:35:12Z</time>
      </trkpt>
      <trkpt lat="46.25288" lon="0.37055">
        <ele>131</ele>
        <time>2007-05-01T13:35:12Z</time>
      </trkpt>
      <trkpt lat="46.2538" lon="0.37201">
        <ele>131</ele>
        <time>2007-05-01T13:35:12Z</time>
      </trkpt>
      <trkpt lat="46.25506" lon="0.37437">
        <ele>129</ele>
        <time>2007-05-01T13:35:12Z</time>
      </trkpt>
      <trkpt lat="46.25586" lon="0.37616">
        <ele>129</ele>
        <time>2007-05-01T13:35:12Z</time>
      </trkpt>
      <trkpt lat="46.25705" lon="0.37728">
        <ele>133</ele>
        <time>2007-05-01T13:35:12Z</time>
      </trkpt>
      <trkpt lat="46.25783" lon="0.37816">
        <ele>133</ele>
        <time>2007-05-01T13:35:12Z</time>
      </trkpt>
      <trkpt lat="46.25927" lon="0.37863">
        <ele>138</ele>
        <time>2007-05-01T13:35:12Z</time>
      </trkpt>
      <trkpt lat="46.2592" lon="0.37947">
        <ele>137</ele>
        <time>2007-05-01T13:35:12Z</time>
      </trkpt>
      <trkpt lat="46.25894" lon="0.3802">
        <ele>138</ele>
        <time>2007-05-01T13:35:12Z</time>
      </trkpt>
      <trkpt lat="46.25887" lon="0.38137">
        <ele>141</ele>
        <time>2007-05-01T13:35:12Z</time>
      </trkpt>
      <trkpt lat="46.25888" lon="0.38422">
        <ele>145</ele>
        <time>2007-05-01T13:35:12Z</time>
      </trkpt>
      <trkpt lat="46.25861" lon="0.38475">
        <ele>145</ele>
        <time>2007-05-01T13:35:12Z</time>
      </trkpt>
      <trkpt lat="46.25934" lon="0.3879">
        <ele>141</ele>
        <time>2007-05-01T13:35:12Z</time>
      </trkpt>
      <trkpt lat="46.25886" lon="0.38876">
        <ele>140</ele>
        <time>2007-05-01T13:35:12Z</time>
      </trkpt>
      <trkpt lat="46.2591" lon="0.3894">
        <ele>141</ele>
        <time>2007-05-01T13:35:12Z</time>
      </trkpt>
      <trkpt lat="46.25961" lon="0.39003">
        <ele>142</ele>
        <time>2007-05-01T13:35:12Z</time>
      </trkpt>
      <trkpt lat="46.25705" lon="0.39045">
        <ele>136</ele>
        <time>2007-05-01T13:35:12Z</time>
      </trkpt>
      <trkpt lat="46.25461" lon="0.38995">
        <ele>140</ele>
        <time>2007-05-01T13:35:12Z</time>
      </trkpt>
      <trkpt lat="46.25277" lon="0.39015">
        <ele>137</ele>
        <time>2007-05-01T13:35:12Z</time>
      </trkpt>
      <trkpt lat="46.25003" lon="0.38798">
        <ele>141</ele>
        <time>2007-05-01T13:35:12Z</time>
      </trkpt>
      <trkpt lat="46.24827" lon="0.38765">
        <ele>137</ele>
        <time>2007-05-01T13:35:12Z</time>
      </trkpt>
      <trkpt lat="46.24732" lon="0.38742">
        <ele>135</ele>
        <time>2007-05-01T13:35:12Z</time>
      </trkpt>
      <trkpt lat="46.24733" lon="0.38781">
        <ele>136</ele>
        <time>2007-05-01T13:35:12Z</time>
      </trkpt>
      <trkpt lat="46.2473" lon="0.38892">
        <ele>136</ele>
        <time>2007-05-01T13:35:12Z</time>
      </trkpt>
      <trkpt lat="46.248" lon="0.38999">
        <ele>139</ele>
        <time>2007-05-01T13:35:12Z</time>
      </trkpt>
      <trkpt lat="46.24748" lon="0.39163">
        <ele>140</ele>
        <time>2007-05-01T13:35:12Z</time>
      </trkpt>
      <trkpt lat="46.24585" lon="0.39357">
        <ele>139</ele>
        <time>2007-05-01T13:35:12Z</time>
      </trkpt>
      <trkpt lat="46.24684" lon="0.396">
        <ele>146</ele>
        <time>2007-05-01T13:35:12Z</time>
      </trkpt>
      <trkpt lat="46.24747" lon="0.3987">
        <ele>148</ele>
        <time>2007-05-01T13:35:12Z</time>
      </trkpt>
      <trkpt lat="46.25193" lon="0.40147">
        <ele>146</ele>
        <time>2007-05-01T13:35:12Z</time>
      </trkpt>
      <trkpt lat="46.25684" lon="0.40479">
        <ele>133</ele>
        <time>2007-05-01T13:35:12Z</time>
      </trkpt>
      <trkpt lat="46.25956" lon="0.40567">
        <ele>121</ele>
        <time>2007-05-01T13:35:12Z</time>
      </trkpt>
      <trkpt lat="46.25988" lon="0.40585">
        <ele>120</ele>
        <time>2007-05-01T13:35:12Z</time>
      </trkpt>
      <trkpt lat="46.25993" lon="0.4065">
        <ele>121</ele>
        <time>2007-05-01T13:35:12Z</time>
      </trkpt>
      <trkpt lat="46.25917" lon="0.40692">
        <ele>121</ele>
        <time>2007-05-01T13:35:12Z</time>
      </trkpt>
      <trkpt lat="46.25905" lon="0.40763">
        <ele>122</ele>
        <time>2007-05-01T13:35:12Z</time>
      </trkpt>
      <trkpt lat="46.25958" lon="0.40969">
        <ele>132</ele>
        <time>2007-05-01T13:35:12Z</time>
      </trkpt>
      <trkpt lat="46.25986" lon="0.41001">
        <ele>134</ele>
        <time>2007-05-01T13:35:12Z</time>
      </trkpt>
      <trkpt lat="46.25964" lon="0.41047">
        <ele>134</ele>
        <time>2007-05-01T13:35:12Z</time>
      </trkpt>
      <trkpt lat="46.25988" lon="0.41137">
        <ele>135</ele>
        <time>2007-05-01T13:35:12Z</time>
      </trkpt>
      <trkpt lat="46.25944" lon="0.41184">
        <ele>135</ele>
        <time>2007-05-01T13:35:12Z</time>
      </trkpt>
      <trkpt lat="46.25926" lon="0.41217">
        <ele>134</ele>
        <time>2007-05-01T13:35:12Z</time>
      </trkpt>
      <trkpt lat="46.26018" lon="0.41324">
        <ele>137</ele>
        <time>2007-05-01T13:35:12Z</time>
      </trkpt>
      <trkpt lat="46.26051" lon="0.41401">
        <ele>138</ele>
        <time>2007-05-01T13:35:12Z</time>
      </trkpt>
      <trkpt lat="46.26044" lon="0.41505">
        <ele>138</ele>
        <time>2007-05-01T13:35:12Z</time>
      </trkpt>
      <trkpt lat="46.26089" lon="0.41542">
        <ele>138</ele>
        <time>2007-05-01T13:35:12Z</time>
      </trkpt>
      <trkpt lat="46.26123" lon="0.41664">
        <ele>138</ele>
        <time>2007-05-01T13:35:12Z</time>
      </trkpt>
      <trkpt lat="46.26192" lon="0.41759">
        <ele>139</ele>
        <time>2007-05-01T13:35:12Z</time>
      </trkpt>
      <trkpt lat="46.26126" lon="0.42118">
        <ele>140</ele>
        <time>2007-05-01T13:35:12Z</time>
      </trkpt>
      <trkpt lat="46.26037" lon="0.42173">
        <ele>132</ele>
        <time>2007-05-01T13:35:12Z</time>
      </trkpt>
      <trkpt lat="46.26021" lon="0.42303">
        <ele>132</ele>
        <time>2007-05-01T13:35:12Z</time>
      </trkpt>
      <trkpt lat="46.25861" lon="0.42659">
        <ele>135</ele>
        <time>2007-05-01T13:35:12Z</time>
      </trkpt>
      <trkpt lat="46.25857" lon="0.42731">
        <ele>136</ele>
        <time>2007-05-01T13:35:12Z</time>
      </trkpt>
      <trkpt lat="46.25594" lon="0.42824">
        <ele>123</ele>
        <time>2007-05-01T13:35:12Z</time>
      </trkpt>
      <trkpt lat="46.25465" lon="0.42933">
        <ele>125</ele>
        <time>2007-05-01T13:35:12Z</time>
      </trkpt>
      <trkpt lat="46.25349" lon="0.43015">
        <ele>131</ele>
        <time>2007-05-01T13:35:12Z</time>
      </trkpt>
      <trkpt lat="46.25185" lon="0.43397">
        <ele>133</ele>
        <time>2007-05-01T13:35:12Z</time>
      </trkpt>
      <trkpt lat="46.25011" lon="0.4374">
        <ele>135</ele>
        <time>2007-05-01T13:35:12Z</time>
      </trkpt>
      <trkpt lat="46.24879" lon="0.43965">
        <ele>138</ele>
        <time>2007-05-01T13:35:12Z</time>
      </trkpt>
      <trkpt lat="46.24692" lon="0.44049">
        <ele>138</ele>
        <time>2007-05-01T13:35:12Z</time>
      </trkpt>
      <trkpt lat="46.24479" lon="0.44245">
        <ele>133</ele>
        <time>2007-05-01T13:35:12Z</time>
      </trkpt>
      <trkpt lat="46.24333" lon="0.44373">
        <ele>139</ele>
        <time>2007-05-01T13:35:12Z</time>
      </trkpt>
      <trkpt lat="46.2425" lon="0.44519">
        <ele>132</ele>
        <time>2007-05-01T13:35:12Z</time>
      </trkpt>
      <trkpt lat="46.24124" lon="0.44568">
        <ele>143</ele>
        <time>2007-05-01T13:35:12Z</time>
      </trkpt>
      <trkpt lat="46.24083" lon="0.44784">
        <ele>145</ele>
        <time>2007-05-01T13:35:12Z</time>
      </trkpt>
      <trkpt lat="46.23991" lon="0.44949">
        <ele>141</ele>
        <time>2007-05-01T13:35:12Z</time>
      </trkpt>
      <trkpt lat="46.23804" lon="0.44768">
        <ele>150</ele>
        <time>2007-05-01T13:35:12Z</time>
      </trkpt>
      <trkpt lat="46.23615" lon="0.45338">
        <ele>142</ele>
        <time>2007-05-01T13:35:12Z</time>
      </trkpt>
      <trkpt lat="46.23399" lon="0.45061">
        <ele>159</ele>
        <time>2007-05-01T13:35:12Z</time>
      </trkpt>
      <trkpt lat="46.2324" lon="0.44716">
        <ele>156</ele>
        <time>2007-05-01T13:35:12Z</time>
      </trkpt>
      <trkpt lat="46.22824" lon="0.44283">
        <ele>154</ele>
        <time>2007-05-01T13:35:12Z</time>
      </trkpt>
      <trkpt lat="46.22517" lon="0.44255">
        <ele>150</ele>
        <time>2007-05-01T13:35:12Z</time>
      </trkpt>
      <trkpt lat="46.22285" lon="0.44107">
        <ele>152</ele>
        <time>2007-05-01T13:35:12Z</time>
      </trkpt>
      <trkpt lat="46.22305" lon="0.44236">
        <ele>152</ele>
        <time>2007-05-01T13:35:12Z</time>
      </trkpt>
      <trkpt lat="46.22281" lon="0.44373">
        <ele>153</ele>
        <time>2007-05-01T13:35:12Z</time>
      </trkpt>
      <trkpt lat="46.22138" lon="0.44689">
        <ele>154</ele>
        <time>2007-05-01T13:35:12Z</time>
      </trkpt>
      <trkpt lat="46.22" lon="0.4483">
        <ele>154</ele>
        <time>2007-05-01T13:35:12Z</time>
      </trkpt>
      <trkpt lat="46.2189" lon="0.45502">
        <ele>158</ele>
        <time>2007-05-01T13:35:12Z</time>
      </trkpt>
      <trkpt lat="46.21854" lon="0.45762">
        <ele>161</ele>
        <time>2007-05-01T13:35:12Z</time>
      </trkpt>
      <trkpt lat="46.21758" lon="0.45966">
        <ele>164</ele>
        <time>2007-05-01T13:35:12Z</time>
      </trkpt>
      <trkpt lat="46.217" lon="0.46241">
        <ele>167</ele>
        <time>2007-05-01T13:35:12Z</time>
      </trkpt>
      <trkpt lat="46.2163" lon="0.46399">
        <ele>169</ele>
        <time>2007-05-01T13:35:12Z</time>
      </trkpt>
      <trkpt lat="46.21591" lon="0.46478">
        <ele>169</ele>
        <time>2007-05-01T13:35:12Z</time>
      </trkpt>
      <trkpt lat="46.21563" lon="0.46667">
        <ele>166</ele>
        <time>2007-05-01T13:35:12Z</time>
      </trkpt>
      <trkpt lat="46.21598" lon="0.46892">
        <ele>161</ele>
        <time>2007-05-01T13:35:12Z</time>
      </trkpt>
      <trkpt lat="46.21521" lon="0.47103">
        <ele>156</ele>
        <time>2007-05-01T13:35:12Z</time>
      </trkpt>
      <trkpt lat="46.21462" lon="0.47357">
        <ele>160</ele>
        <time>2007-05-01T13:35:12Z</time>
      </trkpt>
      <trkpt lat="46.21437" lon="0.47481">
        <ele>158</ele>
        <time>2007-05-01T13:35:12Z</time>
      </trkpt>
      <trkpt lat="46.21457" lon="0.47636">
        <ele>153</ele>
        <time>2007-05-01T13:35:12Z</time>
      </trkpt>
      <trkpt lat="46.21577" lon="0.48053">
        <ele>151</ele>
        <time>2007-05-01T13:35:12Z</time>
      </trkpt>
      <trkpt lat="46.21484" lon="0.48446">
        <ele>141</ele>
        <time>2007-05-01T13:35:12Z</time>
      </trkpt>
      <trkpt lat="46.21562" lon="0.48547">
        <ele>140</ele>
        <time>2007-05-01T13:35:12Z</time>
      </trkpt>
      <trkpt lat="46.21528" lon="0.48658">
        <ele>135</ele>
        <time>2007-05-01T13:35:12Z</time>
      </trkpt>
      <trkpt lat="46.21516" lon="0.48769">
        <ele>128</ele>
        <time>2007-05-01T13:35:12Z</time>
      </trkpt>
      <trkpt lat="46.2145" lon="0.48849">
        <ele>133</ele>
        <time>2007-05-01T13:35:12Z</time>
      </trkpt>
      <trkpt lat="46.21107" lon="0.49035">
        <ele>147</ele>
        <time>2007-05-01T13:35:12Z</time>
      </trkpt>
      <trkpt lat="46.20888" lon="0.49107">
        <ele>145</ele>
        <time>2007-05-01T13:35:12Z</time>
      </trkpt>
      <trkpt lat="46.20843" lon="0.49161">
        <ele>147</ele>
        <time>2007-05-01T13:35:12Z</time>
      </trkpt>
      <trkpt lat="46.20618" lon="0.4913">
        <ele>149</ele>
        <time>2007-05-01T13:35:12Z</time>
      </trkpt>
      <trkpt lat="46.2045" lon="0.49297">
        <ele>154</ele>
        <time>2007-05-01T13:35:12Z</time>
      </trkpt>
      <trkpt lat="46.20427" lon="0.49304">
        <ele>153</ele>
        <time>2007-05-01T13:35:12Z</time>
      </trkpt>
      <trkpt lat="46.20365" lon="0.49365">
        <ele>151</ele>
        <time>2007-05-01T13:35:12Z</time>
      </trkpt>
      <trkpt lat="46.2028" lon="0.49361">
        <ele>145</ele>
        <time>2007-05-01T13:35:12Z</time>
      </trkpt>
      <trkpt lat="46.20278" lon="0.49543">
        <ele>145</ele>
        <time>2007-05-01T13:35:12Z</time>
      </trkpt>
      <trkpt lat="46.2024" lon="0.497">
        <ele>147</ele>
        <time>2007-05-01T13:35:12Z</time>
      </trkpt>
      <trkpt lat="46.20027" lon="0.49623">
        <ele>142</ele>
        <time>2007-05-01T13:35:12Z</time>
      </trkpt>
      <trkpt lat="46.19746" lon="0.49775">
        <ele>141</ele>
        <time>2007-05-01T13:35:12Z</time>
      </trkpt>
      <trkpt lat="46.19607" lon="0.49766">
        <ele>141</ele>
        <time>2007-05-01T13:35:12Z</time>
      </trkpt>
      <trkpt lat="46.19578" lon="0.49903">
        <ele>143</ele>
        <time>2007-05-01T13:35:12Z</time>
      </trkpt>
      <trkpt lat="46.19528" lon="0.49925">
        <ele>144</ele>
        <time>2007-05-01T13:35:12Z</time>
      </trkpt>
      <trkpt lat="46.19632" lon="0.50226">
        <ele>154</ele>
        <time>2007-05-01T13:35:12Z</time>
      </trkpt>
      <trkpt lat="46.19896" lon="0.50651">
        <ele>154</ele>
        <time>2007-05-01T13:35:12Z</time>
      </trkpt>
      <trkpt lat="46.20135" lon="0.51012">
        <ele>155</ele>
        <time>2007-05-01T13:35:12Z</time>
      </trkpt>
      <trkpt lat="46.20315" lon="0.51272">
        <ele>150</ele>
        <time>2007-05-01T13:35:12Z</time>
      </trkpt>
      <trkpt lat="46.21669" lon="0.52089">
        <ele>141</ele>
        <time>2007-05-01T13:35:12Z</time>
      </trkpt>
      <trkpt lat="46.21865" lon="0.52264">
        <ele>135</ele>
        <time>2007-05-01T13:35:12Z</time>
      </trkpt>
      <trkpt lat="46.21967" lon="0.52429">
        <ele>137</ele>
        <time>2007-05-01T13:35:12Z</time>
      </trkpt>
      <trkpt lat="46.22037" lon="0.52861">
        <ele>144</ele>
        <time>2007-05-01T13:35:12Z</time>
      </trkpt>
      <trkpt lat="46.22067" lon="0.53028">
        <ele>147</ele>
        <time>2007-05-01T13:35:12Z</time>
      </trkpt>
      <trkpt lat="46.22098" lon="0.5304">
        <ele>148</ele>
        <time>2007-05-01T13:35:12Z</time>
      </trkpt>
    </trkseg>
  </trk>
</gpx>